Date,TemperatureHighF,TemperatureAvgF,TemperatureLowF,DewpointHighF,DewpointAvgF,DewpointLowF,HumidityHigh,HumidityAvg,HumidityLow,PressureMaxIn,PressureMinIn,WindSpeedMaxMPH,WindSpeedAvgMPH,GustSpeedMaxMPH,PrecipitationSumIn
2013-9-1,93.5,78.1,69.0,76.9,71.8,68.0,99,83,55,29.77,29.58,15,3,15,0.24
2013-9-2,93.7,76.7,65.8,77.0,70.1,65.0,99,82,47,29.76,29.68,12,2,12,0.00
2013-9-3,91.3,72.6,58.6,65.3,61.0,54.9,98,72,31,29.92,29.75,10,1,10,0.00
2013-9-4,95.5,70.4,52.4,70.3,58.9,51.7,99,73,33,30.02,29.92,8,1,8,0.00
2013-9-5,95.1,73.8,56.4,74.7,62.3,55.9,99,73,33,30.06,29.99,9,1,9,0.00
2013-9-6,97.3,74.9,60.9,68.8,64.1,60.3,98,74,32,30.07,29.95,7,1,7,0.00
2013-9-7,93.7,74.7,58.9,73.4,64.7,58.4,99,75,41,29.96,29.83,11,2,11,0.00
2013-9-8,94.4,77.4,67.6,78.2,69.2,65.5,99,79,45,29.87,29.81,9,1,9,0.04
2013-9-9,99.2,79.7,64.0,76.5,69.6,63.7,99,76,41,29.91,29.83,9,2,9,0.00
2013-9-10,98.0,79.2,71.2,77.0,72.6,70.1,99,82,49,30.01,29.90,12,2,12,0.00
2013-9-11,99.6,80.2,67.4,77.0,71.4,66.7,99,79,36,30.03,29.93,9,2,9,0.01
2013-9-12,85.7,74.3,65.4,75.1,69.0,63.5,99,85,52,29.93,29.79,12,2,12,0.07
2013-9-13,82.3,65.4,47.4,63.8,51.6,44.9,99,67,27,30.60,29.82,13,2,13,0.00
2013-9-14,47.4,45.5,43.8,44.9,43.8,42.3,95,94,91,29.95,29.93,1,0,1,0.00
2013-9-15,87.2,63.1,42.4,62.5,52.0,41.6,99,72,34,29.98,29.90,13,2,13,0.00
2013-9-16,81.6,68.0,58.7,63.8,61.1,56.1,93,80,53,30.10,29.93,8,1,8,0.00
2013-9-17,85.0,65.8,53.7,58.8,55.0,51.6,97,73,32,30.13,29.99,11,2,11,0.00
2013-9-18,82.7,67.6,55.0,70.2,63.5,53.3,98,87,62,30.02,29.92,9,1,9,0.04
2013-9-19,91.9,72.8,63.4,74.4,68.4,63.2,99,88,52,29.99,29.84,12,1,12,0.01
2013-9-20,86.5,73.3,66.7,72.8,69.3,66.1,99,89,59,29.87,29.69,14,3,14,0.86
2013-9-21,80.5,66.0,51.5,67.3,58.1,50.0,99,80,38,29.75,29.62,12,2,12,0.30
2013-9-22,83.8,61.7,46.9,61.9,50.6,46.6,99,73,31,29.86,29.75,8,1,8,0.00
2013-9-23,82.0,60.5,44.2,58.9,50.3,43.6,99,75,35,29.93,29.85,9,2,9,0.00
2013-9-24,87.4,65.3,50.8,65.3,57.6,49.7,99,79,42,29.89,29.74,8,1,8,0.00
2013-9-25,86.5,69.2,58.6,68.6,62.5,57.4,97,82,44,29.77,29.70,7,1,7,0.02
2013-9-26,89.5,67.5,51.7,67.7,55.1,49.5,99,72,26,29.92,29.77,7,1,7,0.00
2013-9-27,92.2,66.2,49.0,69.5,54.5,48.8,99,73,29,30.02,29.92,8,1,8,0.00
2013-9-28,89.2,66.4,49.7,65.6,56.9,49.4,99,76,37,30.02,29.92,12,1,12,0.00
2013-9-29,64.9,60.4,53.3,62.4,59.1,52.8,99,96,84,29.94,29.87,8,1,8,0.10
2013-9-30,82.9,67.8,60.0,67.2,63.2,59.3,99,87,57,29.89,29.82,10,1,10,0.02